Regional Weather Roundup
Issued by NWS

Home | Current Version | Previous Version | Text Only | Print | Product List | Glossary On
Versions: 1 2 3 4 5 6 7 8 9 10 11 12 13 14 15 16 17 18 19 20 21 22 23 24 25 26 27
000
ASUS45 KBOU 200207
RWRCO

WEATHER ROUNDUP FOR COLORADO
NATIONAL WEATHER SERVICE DENVER/BOULDER CO
800 PM MDT THU OCT 19 2017

NOTE: "FAIR" INDICATES FEW OR NO CLOUDS BELOW 12000 FEET WITH NO
SIGNIFICANT WEATHER AND/OR OBSTRUCTIONS TO VISIBILITY.

COZ001>005-013-030-031-200300-
...NORTHWEST COLORADO...

CITY           SKY/WX    TMP DP  RH WIND       PRES   REMARKS
CRAIG          FAIR      56  31  38 SW7       29.98S
HAYDEN         CLOUDY    61  31  32 SW5       30.02S
MEEKER         MOCLDY    55  34  45 CALM      30.00S
RABBIT EARS PA FAIR      43  28  56 W9G21     30.23F
STEAMBOAT SPGS FAIR      56  26  30 E5        30.03S
WALDEN         NOT AVBL
$$

COZ006>008-011-200300-
...WEST CENTRAL VALLEYS...

CITY           SKY/WX    TMP DP  RH WIND       PRES   REMARKS
GRAND JUNCTION MOCLDY    62  24  23 E5        29.92F
MONTROSE       FAIR      57  27  31 S5        30.02R
EAGLE          FAIR      57  28  33 E3        30.04R
RIFLE          FAIR      63  31  30 SW5       29.97R
DELTA          FAIR      64  22  20 CALM      29.97R
NUCLA          CLOUDY    63  30  29 SE6       30.04S
$$

COZ017>023-064>068-200300-
...SOUTHWEST COLORADO...

CITY           SKY/WX    TMP DP  RH WIND       PRES   REMARKS
DURANGO        MOCLDY    58  31  35 SW6       30.08R
CORTEZ         FAIR      51  33  50 NE7       30.03S
PAGOSA SPRINGS MOCLDY    54  23  30 CALM      30.14R
TELLURIDE      CLOUDY    52  27  39 S3        30.20S
WOLF CREEK PAS MOCLDY    36  23  60 S14G22    30.39S
$$

COZ009-010-012-014-032>034-037-058>063-200300-
...CENTRAL COLORADO...

CITY           SKY/WX    TMP DP  RH WIND       PRES   REMARKS
ASPEN          FAIR      50  26  39 S7        30.09R
BUENA VISTA    FAIR      47  20  34 CALM      30.09R
COPPER MTN     FAIR      45  19  36 W10       30.33S
BERTHOUD PASS  FAIR      36  27  69 NW5       30.35F
COTTONWOOD PAS FAIR      55  19  24 NW5       30.20S
GUNNISON       MOCLDY    54  25  32 CALM      30.09R
KREMMLING      FAIR      61  23  23 W7        30.06S
LEADVILLE      FAIR      45  19  35 N5        30.19S
MONARCH PASS   FAIR      41  14  33 S12       30.43S
SALIDA         FAIR      60  12  15 CALM      30.14R
SUNLIGHT       FAIR      39  27  60 SW6       30.29R
WILKERSON PASS FAIR      45  10  24 SW9       30.30F
$$

COZ069>075-200300-
...SAN LUIS VALLEY/SANGRE DE CRISTO MOUNTAINS...

CITY           SKY/WX    TMP DP  RH WIND       PRES   REMARKS
ALAMOSA        FAIR      51  26  37 SW8       30.07R
DEL NORTE      FAIR      49  20  31 W9        30.12R
LA VETA PASS   FAIR      46  16  29 S15       30.34S
SAGUACHE       FAIR      46  18  31 N8        30.10S
$$

COZ035-036-038>040-200300-
...NORTHERN COLORADO FRONT RANGE...

CITY           SKY/WX    TMP DP  RH WIND       PRES   REMARKS
DENVER INTL AP FAIR      54  27  35 S9        29.91S
DMNS CITY PARK   N/A     55  34  46 E7        29.91S
AURORA         MOCLDY    60  26  27 S10       29.93S
FRONT RANGE AP MOCLDY    55  28  35 S10       29.93S
ERIE MUNI ARPT FAIR      49  35  58 CALM      29.95S
BOULDER MUN AP FAIR      55  37  50 CALM      29.91S
CENTENNIAL     FAIR      61  25  25 S9        29.95R
BROOMFIELD     NOT AVBL
FORT COLLINS   FAIR      57  32  38 N3        29.90F
LONGMONT       FAIR      54  37  53 W5        29.92S
$$

COZ041-046-047-076>085-087-088-200300-
...PIKES PEAK/PALMER DIVIDE AND SOUTHERN FOOTHILLS...

CITY           SKY/WX    TMP DP  RH WIND       PRES   REMARKS
COLO. SPRINGS  MOCLDY    55  31  39 E7        30.02S
A. F. ACADEMY  FAIR      52  27  37 S6        30.02S
SCHRIEVER AFB  FAIR      54  30  39 CALM      30.02S
CHEYENNE MTN   FAIR      59  23  24 S8        29.99F
ELLICOTT       FAIR     N/A N/A N/A SE7       30.00S
FALCON         FAIR      51  28  41 S5        30.06S
FORT CARSON    FAIR      62  27  26 W6        29.98S
LIMON          FAIR      43  34  70 CALM      29.97S
MONUMENT HILL  FAIR      52  28  40 S18       30.03F
CANON CITY     FAIR      64  30  27 CALM      29.96S
WALSENBURG     FAIR      63  32  31 CALM      29.98S
TRINIDAD       FAIR      57  30  35 NW6       29.98R
$$

COZ042>045-048>051-090-091-200300-
...NORTHEAST COLORADO...

CITY           SKY/WX    TMP DP  RH WIND       PRES   REMARKS
GREELEY ARPT   FAIR      51  36  56 NW5       29.89S
AKRON          FAIR      60  32  34 S13       29.91S
BURLINGTON     FAIR      61  46  57 SE14      29.93F
WRAY           NOT AVBL
YUMA           NOT AVBL
STERLING       NOT AVBL
HOLYOKE        FAIR      59  43  55 SE10      29.89S
FORT MORGAN    FAIR      57  31  36 S7        29.91R
$$

COZ086-089-092>099-200300-
...SOUTHEAST COLORADO...

CITY           SKY/WX    TMP DP  RH WIND       PRES   REMARKS
PUEBLO         FAIR      64  37  36 NE10      29.90S
LA JUNTA       FAIR      62  38  40 SE7       29.89S
LAMAR          FAIR      62  47  57 SE8       29.89R
SPRINGFIELD      N/A     62  47  57 S14       29.97S
$$




USA.gov is the U.S. government's official web portal to all federal, state and local government web resources and services.